Starlink 35445

operational
NORAD ID: 65880 Int'l Des: 2025-223 Owner: SPXS Country: US Constellation: starlink
NOTLE

About Starlink 35445

Description loading...

Live Position

Loading 3D Globe...

Upcoming Passes

Altitude History

Altitude vs Time

uPlot chart will show altitude changes over time

Two-Line Element Set

1 65880U 25223AC 25318.80538757 .00047398 00000-0 11853-2 0 9994
2 65880 53.1601 108.6913 0000951 322.7513 37.3426 15.39678817 6603
Epoch: Nov 14, 2025 • Age: 8 hours

Current Status

Altitude 449.4 km
Velocity 7.65 km/s
Sub-Earth Point 34.86°N, 34.19°E
Launch Date Oct 3, 2025
Age 0.1 years
Type internet

Technical Details

Classification Payload
Mass 575.00 kg
Dry Mass 530.00 kg
Total Mass 575.00 kg
Length 0.30 m
Diameter 4.10 m
Span 29.00 m
Shape Box + pan
Manufacturer SPXS
Bus Type Starlink V2MO
Phase Status In Orbit
Owner/State SPXS/US

Large Constellations

Loading constellations...